Regional Weather Roundup
Issued by NWS

Home | Current Version | Previous Version | Graphics & Text | Print | Product List | Glossary On
Versions: 1 2 3 4 5 6 7 8 9 10 11 12 13 14 15 16 17 18 19 20 21 22 23 24 25 26 27 28 29 30 31 32 33 34 35 36 37 38 39 40 41 42 43 44 45 46 47 48 49 50
000
ASUS43 KMPX 041701
RWRMN
WEATHER ROUNDUP FOR MINNESOTA
NATIONAL WEATHER SERVICE TWIN CITIES/CHANHASSEN MN
1200 PM CDT WED MAY 04 2016


NOTE: "FAIR" INDICATES FEW OR NO CLOUDS BELOW 12,000 FEET WITH NO
SIGNIFICANT WEATHER AND/OR OBSTRUCTIONS TO VISIBILITY. N/A MEANS
CURRENT SKY AND/OR WEATHER CONDITIONS ARE NOT AVAILABLE.

MNZ060>063-068>070-041800-
   Twin Cities Metro

CITY           SKY/WX    TMP DP  RH WIND       PRES   REMARKS
TWIN CITIES    MOSUNNY   60  33  36 N15G26    29.98S
ST PAUL        SUNNY     59  35  40 N21G26    29.98S
CRYSTAL        SUNNY     62  33  33 NW12G24   29.97S
BLAINE         MOSUNNY   61  34  36 N21G26    29.98R
EDEN PRAIRIE   MOSUNNY   61  35  37 N13G26    29.97S
SOUTH ST PAUL  SUNNY     60  33  36 NW14G24   29.97S
LAKE ELMO      FAIR      59  36  41 NW15G22   29.98S
$$
MNZ001>005-007-008-013>017-022>024-027-028-041800-
   Northwest Minnesota

CITY           SKY/WX    TMP DP  RH WIND       PRES   REMARKS
BEMIDJI        SUNNY     55  29  37 N13G21    30.05S
HALLOCK        SUNNY     57  28  33 N6        30.08F
ROSEAU         SUNNY     57  19  23 N6G16     30.07S HAZE
WARROAD        SUNNY     52  34  50 E7        30.08S
THIEF RVR FALL SUNNY     57  27  30 NW8       30.08F
CROOKSTON      SUNNY     57  34  41 N12       30.09S
FOSSTON        SUNNY     57  27  30 N8        30.07F
DETROIT LAKES  SUNNY     57  34  41 N16G23    30.07S
MOORHEAD       SUNNY     59  34  38 N9        30.08F
PARK RAPIDS    SUNNY     58  24  27 N14G20    30.03F
MAHNOMEN       FAIR      57  29  35 N17       30.06F
$$
MNZ006-009>011-018-025>026-041800-
   North Central Minnesota

CITY           SKY/WX    TMP DP  RH WIND       PRES   REMARKS
BAUDETTE       SUNNY     52  25  35 NW12G20   30.06S
FLAG ISLAND    SUNNY     48  27  43 CALM      30.06S
INTL FALLS     SUNNY     52  19  27 N12G18    30.04S
WASKISH        SUNNY     55  23  28 NW10G16   30.05F
BIG FORK       SUNNY     55  19  24 N7        30.03S
LONGVILLE      SUNNY     55  27  33 NW6G18    30.03S
GRAND RAPIDS   SUNNY     54  21  28 N15G21    30.03S
CRANE LAKE     SUNNY     48  23  37 NW6       30.04S
ORR            SUNNY     54  18  24 NW10      29.99S
COOK           SUNNY     54  21  28 N12G18    30.01S
WALKER         FAIR      55  27  33 N10G20    30.03F
$$
MNZ012-019>021-037-041800-
   Northeast Minnesota

CITY           SKY/WX    TMP DP  RH WIND       PRES   REMARKS
DULUTH         SUNNY     56  23  27 N15G21    29.96S
ELY            SUNNY     52  21  30 N6G16     29.99R
HIBBING        SUNNY     52  21  29 N12       29.99S
EVELETH        SUNNY     54  19  26 N6G17     30.00S
DULUTH HARBOR  SUNNY     55  25  30 N13       29.97S
TWO HARBORS    SUNNY     54  36  50 E12       29.95R
SILVER BAY     SUNNY     48  32  53 SE6       29.95R
GRAND MARAIS     N/A     54  29  38 VRB5      29.95F
G MARAIS ARPRT SUNNY     46  27  46 N13       29.95R
$$
MNZ029>031-032-039>041-046>048-054>057-064-041800-
   West Central Minnesota

CITY           SKY/WX    TMP DP  RH WIND       PRES   REMARKS
FERGUS FALLS   SUNNY     61  36  39 N12G23    30.04S
WHEATON        SUNNY     63  37  39 NW16G26   30.08F
MORRIS         SUNNY     63  34  34 N21       30.04F
ALEXANDRIA     SUNNY     60  33  36 N20       30.05S
ELBOW LAKE     FAIR      58  36  44 NW14G21   30.06S
WADENA         SUNNY     59  30  33 N15G21    30.03F
GLENWOOD       SUNNY     61  32  33 NW20G25   30.04S
APPLETON       SUNNY     63  34  34 NW15G22   30.05S
BENSON         SUNNY     64  28  25 N18G24    30.04F
ORTONVILLE     SUNNY     61  36  39 NW12G18   30.06F
MADISON        SUNNY     63  36  36 NW12G23   30.06F
WILLMAR        FAIR      63  34  34 N18G26    30.04S
$$
MNZ033>034-036-042>043-049>051-058-059-041800-
   Central Minnesota

CITY           SKY/WX    TMP DP  RH WIND       PRES   REMARKS
ST CLOUD       SUNNY     61  32  33 NW14G25   29.99S
SAUK CENTRE    FAIR      60  34  38 N15G21    30.03S
PAYNESVILLE    SUNNY     61  31  32 NW18G25   30.02F
AITKIN         SUNNY     61  16  17 N12G22    29.99F
PINE RIVER     SUNNY     55  30  38 N10G17    30.06S
BRAINERD       SUNNY     56  26  31 N14G24    30.03R
STAPLES        SUNNY     57  27  30 NW15G25   30.02F
LONG PRAIRIE   FAIR      57  34  41 NW15G25   30.03S
LITTLE FALLS   SUNNY     59  28  31 NW13G20   30.02R
LITCHFIELD     SUNNY     63  34  34 N21       30.02S
BUFFALO        SUNNY     60  31  33 NW17G23   30.01S
MAPLE LAKE     SUNNY     60  36  39 N16       30.02S
HUTCHINSON     SUNNY     62  35  37 NW20G25   30.02S
$$
MNZ037-044-045-052-053-041800-
   East Central Minnesota

CITY           SKY/WX    TMP DP  RH WIND       PRES   REMARKS
PRINCETON      SUNNY     63  32  31 N17G25    29.99S
MORA           SUNNY     55  34  44 NW12G17   30.00S
CAMBRIDGE      SUNNY     61  39  44 N13G22    29.97S
RUSH CITY      SUNNY     58  31  35 NW14G22   29.97F
MOOSE LAKE     SUNNY     57  28  33 N14       29.96S
HINCKLEY       CLOUDY    57  32  38 N17       29.97S
CLOQUET        SUNNY     55  21  26 NW15G24   29.97S
MCGREGOR       SUNNY     55  27  33 N17       30.00S
$$
MNZ071>073-080-081-089-090-097-098-041800-
   Southwest Minnesota

CITY           SKY/WX    TMP DP  RH WIND       PRES   REMARKS
MONTEVIDEO     SUNNY     63  36  36 N21G26    30.06F
GRANITE FALLS  SUNNY     63  38  39 NW16G22   30.06F
CANBY          SUNNY     63  39  41 NW13G23   30.08S
REDWOOD FALLS  SUNNY     63  32  31 NW16G23   30.04R
OLIVIA         SUNNY     61  32  33 N18G25    30.02F
PIPESTONE      SUNNY     61  30  31 N13G24    30.07R
WINDOM         SUNNY     61  34  36 NW16G22   30.05R
WORTHINGTON    SUNNY     57  35  43 N17       30.07S
JACKSON        SUNNY     59  32  36 NW18G29   30.05S
TRACY          SUNNY     61  36  40 NW15G22   30.06S
SLAYTON        SUNNY     57  34  41 NW14G21   30.07R
$$
MNZ065>067-074>077-082>085-091>093-041800-
   South Central Minnesota

CITY           SKY/WX    TMP DP  RH WIND       PRES   REMARKS
MANKATO        MOSUNNY   59  32  36 N22G31    30.00F
NEW ULM        MOSUNNY   61  32  33 NW16G24   30.02S
ST JAMES       SUNNY     55  28  35 NW21      30.04S
FAIRMONT       SUNNY     57  34  41 NW18G28   30.02S
GLENCOE        SUNNY     61  38  43 NW14G23   30.00S
FARIBAULT      SUNNY     59  34  38 NW18G29   29.99S
OWATONNA       SUNNY     57  30  35 NW23G29   29.98S
WASECA         SUNNY     59  32  36 N21       30.01S
ALBERT LEA     SUNNY     59  28  31 N17G23    29.98S
$$
MNZ078>079-086>088-094>096-041800-
   Southeast Minnesota

CITY           SKY/WX    TMP DP  RH WIND       PRES   REMARKS
ROCHESTER      MOSUNNY   58  34  40 N26G33    29.96R
RED WING       MOSUNNY   61  30  31 N10G21    29.95S
STANTON        MOSUNNY   59  33  37 N22G28    29.96S
DODGE CENTER   SUNNY     57  30  35 N18G26    29.96S
WINONA         SUNNY     59  34  38 N12G25    29.93S
AUSTIN         SUNNY     57  32  38 N20G26    29.96S
PRESTON        MOSUNNY   54  32  43 N20G26    29.94R
$$
ABBREVIATIONS USED IN REMARKS
   TC - TEMPERATURES IN CELSIUS
  WCI - WIND CHILL INDEX
   HX - HEAT INDEX
  VSB - VISIBILITY
$$



USA.gov is the U.S. government's official web portal to all federal, state and local government web resources and services.